Terminal Aerodrome Forecast
Issued by NWS Central Illinois

Home | Current Version | Previous Version | Text Only | Print | Product List | Glossary On
Versions: 1 2 3 4 5 6 7 8 9 10 11 12 13 14 15 16 17 18 19 20 21 22 23 24 25 26 27 28 29 30 31 32 33 34 35 36 37 38 39 40 41 42 43 44
000
FTUS43 KILX 182335
TAFSPI
TAF
KSPI 182335Z 1900/1924 20006KT P6SM FEW050 SCT250
     FM190800 17004KT P6SM SCT045 BKN080
     FM191600 VRB05KT P6SM SCT030 BKN050
     FM191900 VRB05KT P6SM VCTS SCT040CB BKN070=

USA.gov is the U.S. government's official web portal to all federal, state and local government web resources and services.